Location: Vancouver
(49.2500°N, 123.1330°W)
Time: 07:48:02
(UTC-08:00)

S-56A Canister/Altair - Visible Passes

Search period start: 21 December 2014 00:00
Search period end: 31 December 2014 00:00
Orbit: 634 x 2502 km, 38.9° (Epoch: 19 December)

Date Brightness Start Highest point End Pass type
(mag) Time Alt. Az. Time Alt. Az. Time Alt. Az.
21 Dec 9.0 05:40:11 20° SSW 05:40:48 20° SSW 05:44:11 10° SSE visible
22 Dec 9.1 05:09:43 22° S 05:09:43 22° S 05:12:32 10° SE visible
23 Dec 9.5 04:39:16 18° SSE 04:39:16 18° SSE 04:40:51 10° SE visible
24 Dec 10.1 04:08:49 12° SE 04:08:49 12° SE 04:09:09 10° SE visible
24 Dec 9.6 06:06:17 11° SW 06:07:10 11° SW 06:08:35 10° SSW visible
25 Dec 9.5 05:35:51 14° SSW 05:35:51 14° SSW 05:37:43 10° S visible
26 Dec 9.7 05:05:26 13° S 05:05:26 13° S 05:06:29 10° S visible
27 Dec 10.1 04:35:03 10° SSE 04:35:03 10° SSE 04:35:05 10° SSE visible
29 Dec 11.4 20:35:51 10° S 20:36:42 11° S 20:36:42 11° S visible
30 Dec 11.2 20:03:48 10° S 20:06:30 13° SSE 20:06:30 13° SSE visible
30 Dec 11.5 22:03:36 10° SSW 22:03:59 11° SSW 22:03:59 11° SSW visible
